Location: Isle of Man Observatory
(54.1776°N, 4.6264°W)
Time: 19:28:09
(UTC+01:00)

X-37B - Pass Details

Date: 11 December 2021
Orbit: 334 x 337 km, 45.0° (Epoch: 11 January)

Event Time Altitude Azimuth Distance (km) Brightness Sun altitude
Rises 19:32:51 0° 237° (WSW) 2,102 5.5 -21.5°
Reaches altitude 10° 19:35:31 10° 209° (SSW) 1,266 3.7 -21.9°
Enters shadow 19:36:18 13° 194° (SSW) 1,130 3.2 -22.0°
